Skip Page Navigation
NASA JPL Caltech
NASA Logo - Jet Propulsion Laboratory + View the NASA Portal
+ Center for Near-Earth Object Studies
JPL Home Earth Solar System Stars & Galaxies Technology
JPL Solar System Dynamics
BODIES ORBITS EPHEMERIDES TOOLS PHYSICAL DATA DISCOVERY FAQ SITE MAP
IMPORTANT: The SSD Announcement email list is now available. Major changes are coming in the near future, including possible hostname and/or URL changes. To be notified of such changes, subscribe to this email list.

Please visit this page for more details.


JPL Small-Body Database Browser
Search: [ help ]  
46548 (1989 SK1)
Classification: Main-belt Asteroid          SPK-ID: 2046548
Ephemeris | Orbit Diagram | Orbital Elements | Mission Design | Physical Parameters | Discovery Circumstances ]

[ show orbit diagram ]
Orbital Elements at Epoch 2458600.5 (2019-Apr-27.0) TDB
Reference: JPL 18 (heliocentric ecliptic J2000)
 Element Value Uncertainty (1-sigma)   Units 
e .2225140833117752 4.7639e-08  
a 2.681354889646202 1.521e-08 au
q 2.084715664343031 1.3519e-07 au
i 4.610017364000722 3.8934e-06 deg
node 56.90528016528551 5.1449e-05 deg
peri 279.0035933859773 5.2298e-05 deg
M 289.9421890151066 9.2833e-06 deg
tp 2458912.592934962340
(2020-Mar-04.09293496)
4.2628e-05 TDB
period 1603.724909570315
4.39
1.3646e-05
3.736e-08
d
yr
n .2244774012373822 1.9101e-09 deg/d
Q 3.277994114949372 1.8595e-08 au
  Orbit Determination Parameters
   # obs. used (total)      836  
   data-arc span      10920 days (29.90 yr)  
   first obs. used      1989-09-26  
   last obs. used      2019-08-20  
   planetary ephem.      DE431  
   SB-pert. ephem.      SB431-N16  
   condition code      0  
   norm. resid. RMS      .52329  
   source      ORB  
   producer      Otto Matic  
   solution date      2019-Sep-24 02:11:43  

Additional Information
 Earth MOID = 1.08045 au 
 Jupiter MOID = 2.12259 au 
 T_jup = 3.336 
[ show covariance matrix ]

Ephemeris | Orbit Diagram | Orbital Elements | Mission Design | Physical Parameters | Discovery Circumstances ]

Physical Parameter Table
Parameter Symbol Value Units Sigma Reference Notes
absolute magnitude H 14.9   n/a MPO436107  
diameter diameter 5.881 km 0.112 urn:nasa:pds:neowise_diameters_albedos::2.0[mainbelt] (http://adsabs.harvard.edu/abs/2011ApJ...741...68M)  
geometric albedo albedo 0.063   0.013 urn:nasa:pds:neowise_diameters_albedos::2.0[mainbelt] (http://adsabs.harvard.edu/abs/2011ApJ...741...68M)  

46548 (1989 SK1)          Discovered 1989-Sep-26 by Elst, E. W. at La Silla
Reference: 20020921/Numbers.arcLast Updated: 2004-04-19

Alternate Designations
 1989 SK1 = 1998 UN24 
Ephemeris | Orbit Diagram | Orbital Elements | Mission Design | Physical Parameters | Discovery Circumstances ]
ABOUT SSD CREDITS/AWARDS PRIVACY/COPYRIGHT GLOSSARY LINKS
FirstGov
(server date/time)  
NASA Home Page
Site Manager:   Ryan S. Park
Webmaster  Alan B. Chamberlin